CW4427 Weather Reports


Display with metric or nautical units.
time (UTC)temp
F
wind
direction
speed
MPH
gust
MPH
rain 1hr
in
rain 24hr
in
rain mn
in
humidity
%
barometer
mb
20260902165403 97 274 0.0 6.0 0.00 0.00 0.00 49 1017.9
20260902164903 97 292 4.0 7.0 0.00 0.00 0.00 49 1017.9
20260902164403 97 313 0.0 7.0 0.00 0.00 0.00 49 1018.0
20260902163903 97 121 4.0 7.0 0.00 0.00 0.00 49 1018.2
20260902163403 98 323 0.0 7.0 0.00 0.00 0.00 50 1018.3
20260902162903 96 140 3.0 7.0 0.00 0.00 0.00 52 1018.2
20260902161903 98 246 3.0 5.0 0.00 0.00 0.00 52 1018.3
20260902161403 97 129 1.0 5.0 0.00 0.00 0.00 51 1018.3
20260902160903 96 281 4.0 4.0 0.00 0.00 0.00 55 1018.5
20260902160403 96 303 2.0 3.0 0.00 0.00 0.00 57 1018.2
20260902155903 97 310 0.0 3.0 0.00 0.00 0.00 56 1018.5
20260902155403 96 250 0.0 3.0 0.00 0.00 0.00 55 1018.5
20260902154903 95 213 0.0 4.0 0.00 0.00 0.00 59 1018.5
20260902154403 94 283 0.0 6.0 0.00 0.00 0.00 56 1018.5
20260902153403 93 34 0.0 5.0 0.00 0.00 0.00 56 1018.5
20260902152903 94 44 3.0 5.0 0.00 0.00 0.00 55 1018.5
20260902152403 93 49 1.0 4.0 0.00 0.00 0.00 60 1018.6
20260902151903 94 137 0.0 4.0 0.00 0.00 0.00 56 1018.5
20260902151403 94 264 2.0 4.0 0.00 0.00 0.00 61 1018.5
20260902150403 94 284 2.0 4.0 0.00 0.00 0.00 59 1018.6
20260902145403 93 282 0.0 3.0 0.00 0.00 0.00 60 1018.5
20260902144403 92 107 1.0 3.0 0.00 0.00 0.00 61 1018.5
20260902143903 92 200 2.0 3.0 0.00 0.00 0.00 60 1018.5
20260902143403 92 280 0.0 3.0 0.00 0.00 0.00 64 1018.5
20260902142903 92 271 0.0 3.0 0.00 0.00 0.00 60 1018.5
20260902142403 91 18 1.0 3.0 0.00 0.00 0.00 63 1018.4
20260902141903 91 284 0.0 3.0 0.00 0.00 0.00 62 1018.5
20260902141403 90 284 1.0 3.0 0.00 0.00 0.00 62 1018.5
20260902140903 90 300 0.0 4.0 0.00 0.00 0.00 63 1018.6
20260902140403 90 281 0.0 4.0 0.00 0.00 0.00 64 1018.6
20260902135903 89 202 1.0 4.0 0.00 0.00 0.00 67 1018.7
20260902135403 89 248 0.0 2.0 0.00 0.00 0.00 67 1018.7
20260902134902 89 261 0.0 3.0 0.00 0.00 0.00 67 1018.7
20260902134402 88 286 0.0 3.0 0.00 0.00 0.00 67 1018.7
20260902133903 87 205 2.0 2.0 0.00 0.00 0.00 70 1018.6
20260902133403 85 148 0.0 0.0 0.00 0.00 0.00 74 1018.6
20260902132902 85 148 0.0 0.0 0.00 0.00 0.00 75 1018.6
20260902132402 83 148 0.0 0.0 0.00 0.00 0.00 76 1018.4
20260902131403 82 148 0.0 0.0 0.00 0.00 0.00 78 1018.4
20260902130402 81 148 0.0 0.0 0.00 0.00 0.00 80 1018.3
20260902125902 80 148 0.0 0.0 0.00 0.00 0.00 80 1018.2
20260902125402 80 148 0.0 0.0 0.00 0.00 0.00 81 1018.3
20260902124402 79 148 0.0 0.0 0.00 0.00 0.00 83 1018.1
20260902123902 78 148 0.0 0.0 0.00 0.00 0.00 84 1018.1
20260902123402 77 148 0.0 0.0 0.00 0.00 0.00 85 1018.0
20260902122903 76 148 0.0 0.0 0.00 0.00 0.00 86 1018.0
20260902122402 76 148 0.0 0.0 0.00 0.00 0.00 86 1017.9
20260902121903 76 148 0.0 0.0 0.00 0.00 0.00 86 1017.9
20260902121402 76 148 0.0 0.0 0.00 0.00 0.00 86 1017.7
20260902120902 75 148 0.0 0.0 0.00 0.00 0.00 86 1017.8
20260902120402 75 148 0.0 0.0 0.00 0.00 0.00 86 1017.7
20260902115902 75 148 0.0 0.0 0.00 0.00 0.00 86 1017.6
20260902115403 75 148 0.0 0.0 0.00 0.00 0.00 86 1017.5
20260902114902 75 148 0.0 0.0 0.00 0.00 0.00 87 1017.4
20260902114403 75 148 0.0 0.0 0.00 0.00 0.00 87 1017.4
20260902113902 75 148 0.0 0.0 0.00 0.00 0.00 87 1017.4
20260902113402 75 148 0.0 0.0 0.00 0.00 0.00 87 1017.5
20260902112402 75 148 0.0 0.0 0.00 0.00 0.00 87 1017.5
20260902111902 75 148 0.0 0.0 0.00 0.00 0.00 87 1017.4
20260902111402 75 148 0.0 0.0 0.00 0.00 0.00 86 1017.4
20260902110902 75 148 0.0 0.0 0.00 0.00 0.00 86 1017.2
20260902110402 75 148 0.0 0.0 0.00 0.00 0.00 86 1017.1
20260902105902 75 148 0.0 0.0 0.00 0.00 0.00 86 1017.0
20260902104902 76 148 0.0 0.0 0.00 0.00 0.00 85 1017.1
20260902104402 76 148 0.0 0.0 0.00 0.00 0.00 86 1017.2
20260902103402 75 148 0.0 0.0 0.00 0.00 0.00 86 1017.1
20260902102402 76 148 0.0 0.0 0.00 0.00 0.00 86 1017.1
20260902100902 76 148 0.0 0.0 0.00 0.00 0.00 85 1017.0
20260902100402 76 148 0.0 0.0 0.00 0.00 0.00 85 1016.9
20260902095902 76 148 0.0 0.0 0.00 0.00 0.00 84 1016.9
20260902095402 76 148 0.0 0.0 0.00 0.00 0.00 84 1016.7
20260902094902 77 148 0.0 0.0 0.00 0.00 0.00 84 1016.8
20260902093902 76 148 0.0 0.0 0.00 0.00 0.00 84 1016.7
20260902093402 76 148 0.0 0.0 0.00 0.00 0.00 84 1016.7
20260902092902 76 148 0.0 0.0 0.00 0.00 0.00 84 1016.7
20260902092402 77 148 0.0 0.0 0.00 0.00 0.00 83 1016.9
20260902091902 77 148 0.0 0.0 0.00 0.00 0.00 82 1016.8
20260902090902 77 148 0.0 0.0 0.00 0.00 0.00 82 1016.7
20260902090402 77 148 0.0 0.0 0.00 0.00 0.00 82 1016.8
20260902085902 77 148 0.0 0.0 0.00 0.00 0.00 82 1016.8
20260902084902 78 148 0.0 0.0 0.00 0.00 0.00 81 1016.7
20260902084402 78 148 0.0 0.0 0.00 0.00 0.00 81 1016.7
20260902083902 78 148 0.0 0.0 0.00 0.00 0.00 81 1016.7
20260902083402 78 148 0.0 0.0 0.00 0.00 0.00 81 1016.6
20260902082902 78 148 0.0 0.0 0.00 0.00 0.00 81 1016.6
20260902082401 78 148 0.0 0.0 0.00 0.00 0.00 81 1016.6
20260902081902 78 148 0.0 0.0 0.00 0.00 0.00 81 1016.6
20260902081402 78 148 0.0 0.0 0.00 0.00 0.00 82 1016.6
20260902080902 77 148 0.0 0.0 0.00 0.00 0.00 82 1016.7
20260902080402 78 148 0.0 0.0 0.00 0.00 0.00 82 1016.7
20260902075902 78 148 0.0 0.0 0.00 0.00 0.00 82 1016.7
20260902075402 78 148 0.0 0.0 0.00 0.00 0.00 81 1016.7
20260902074401 78 148 0.0 0.0 0.00 0.00 0.00 81 1016.6
20260902073901 78 148 0.0 0.0 0.00 0.00 0.00 80 1016.8
20260902072402 79 148 0.0 0.0 0.00 0.00 0.00 79 1016.8
20260902071402 79 148 0.0 0.0 0.00 0.00 0.00 79 1016.7
20260902070901 79 148 0.0 0.0 0.00 0.00 0.00 78 1016.7
20260902070401 79 148 0.0 0.0 0.00 0.00 0.00 78 1016.7
20260902065901 79 148 0.0 0.0 0.00 0.00 0.00 78 1016.6
20260902065402 80 148 0.0 0.0 0.00 0.00 0.00 77 1016.7
20260902064902 79 148 0.0 0.0 0.00 0.00 0.00 78 1016.9
20260902063901 79 148 0.0 0.0 0.00 0.00 0.00 79 1016.9
20260902063401 79 95 0.0 0.0 0.00 0.00 0.00 78 1016.8
20260902062902 80 95 0.0 0.0 0.00 0.00 0.00 78 1016.9
20260902062402 79 95 0.0 0.0 0.00 0.00 0.00 79 1016.8
20260902061901 79 95 0.0 0.0 0.00 0.00 0.00 79 1016.8
20260902060902 79 95 0.0 0.0 0.00 0.00 0.00 78 1016.9
20260902055901 79 95 0.0 0.0 0.00 0.00 0.00 79 1016.9
20260902055402 79 95 0.0 0.0 0.00 0.00 0.00 79 1017.0
20260902054901 79 95 0.0 0.0 0.00 0.00 0.00 79 1016.9
20260902054401 79 95 0.0 0.0 0.00 0.00 0.00 79 1016.9
20260902053901 79 95 0.0 0.0 0.00 0.00 0.00 79 1016.8
20260902053401 79 95 0.0 0.0 0.00 0.00 0.00 79 1016.6
20260902052902 79 95 0.0 0.0 0.00 0.00 0.00 79 1016.6
20260902052402 80 95 0.0 0.0 0.00 0.00 0.00 79 1016.7
20260902051901 80 95 0.0 0.0 0.00 0.00 0.00 78 1016.6
20260902051401 80 95 0.0 0.0 0.00 0.00 0.00 78 1016.8
20260902045902 80 95 0.0 0.0 0.00 0.00 0.00 78 1016.5
20260902044902 80 95 0.0 0.0 0.00 0.00 0.00 78 1016.5
20260902043901 80 95 0.0 0.0 0.00 0.00 0.00 78 1016.4
20260902043401 80 95 0.0 0.0 0.00 0.00 0.00 78 1016.4
20260902040901 80 95 0.0 0.0 0.00 0.00 0.00 78 1016.3
20260902040401 80 95 0.0 0.0 0.00 0.00 0.00 77 1016.5
20260902035901 80 95 0.0 0.0 0.00 0.00 0.00 77 1016.4
20260902034901 81 95 0.0 0.0 0.00 0.00 0.00 75 1016.5
20260902034401 81 95 0.0 0.0 0.00 0.00 0.00 76 1016.4
20260902033901 81 95 0.0 0.0 0.00 0.00 0.00 76 1016.4
20260902032901 81 95 0.0 0.0 0.00 0.00 0.00 77 1016.5
20260902032401 81 95 0.0 0.0 0.00 0.00 0.00 76 1016.4
20260902031901 81 95 0.0 0.0 0.00 0.00 0.00 76 1016.5
20260902030901 81 95 0.0 0.0 0.00 0.00 0.00 76 1016.3
20260902030400 81 95 0.0 0.0 0.00 0.00 0.00 76 1016.4
20260902025901 81 95 0.0 0.0 0.00 0.00 0.00 76 1016.3
20260902024401 82 95 0.0 0.0 0.00 0.00 0.00 75 1016.1
20260902023900 82 95 0.0 0.0 0.00 0.00 0.00 74 1016.1
20260902023401 82 95 0.0 0.0 0.00 0.00 0.00 74 1015.9
20260902022901 82 95 0.0 0.0 0.00 0.00 0.00 73 1015.8
20260902022400 83 95 0.0 0.0 0.00 0.00 0.00 73 1015.9
20260902021901 83 95 0.0 0.0 0.00 0.00 0.00 73 1015.9
20260902021401 83 95 0.0 0.0 0.00 0.00 0.00 72 1015.9
20260902020900 83 95 0.0 0.0 0.00 0.00 0.00 72 1015.8
20260902015900 83 95 0.0 0.0 0.00 0.00 0.00 71 1015.9
20260902015401 84 95 0.0 0.0 0.00 0.00 0.00 70 1015.8
20260902014900 84 95 0.0 0.0 0.00 0.00 0.00 70 1015.8
20260902014400 84 95 0.0 0.0 0.00 0.00 0.00 70 1015.8
20260902013900 84 95 0.0 0.0 0.00 0.00 0.00 70 1015.8
20260902013400 84 95 0.0 0.0 0.00 0.00 0.00 69 1015.6
20260902012400 85 95 0.0 0.0 0.00 0.00 0.00 68 1015.7
20260902011900 85 95 0.0 0.0 0.00 0.00 0.00 68 1015.6
20260902011400 85 95 0.0 0.0 0.00 0.00 0.00 68 1015.6
20260902010900 85 95 0.0 0.0 0.00 0.00 0.00 67 1015.6
20260902010400 86 95 0.0 0.0 0.00 0.00 0.00 66 1015.5
20260902005400 86 95 0.0 0.0 0.00 0.00 0.00 65 1015.4
20260902004900 86 95 0.0 0.0 0.00 0.00 0.00 65 1015.4
20260902004400 87 95 0.0 0.0 0.00 0.00 0.00 64 1015.4
20260902003900 87 95 0.0 0.0 0.00 0.00 0.00 63 1015.3
20260902003400 87 95 0.0 0.0 0.00 0.00 0.00 62 1015.1
20260902002900 88 95 0.0 0.0 0.00 0.00 0.00 62 1015.1
20260902002400 88 95 0.0 0.0 0.00 0.00 0.00 61 1015.1
20260902001900 88 95 0.0 0.0 0.00 0.00 0.00 60 1015.2
20260902001400 89 95 0.0 2.0 0.00 0.00 0.00 60 1015.3
20260902000900 90 95 0.0 3.0 0.00 0.00 0.00 59 1015.3
20260902000401 90 94 2.0 3.0 0.00 0.00 0.00 56 1015.3
20260901235900 91 99 0.0 1.0 0.00 0.00 0.00 57 1015.4
20260901235400 91 99 0.0 3.0 0.00 0.00 0.00 55 1015.3
20260901234901 92 102 0.0 3.0 0.00 0.00 0.00 53 1015.3
20260901233900 93 92 0.0 4.0 0.00 0.00 0.00 50 1015.4
20260901233400 94 107 0.0 4.0 0.00 0.00 0.00 50 1015.4
20260901232400 95 103 1.0 7.0 0.00 0.00 0.00 47 1015.5
20260901231900 95 119 2.0 6.0 0.00 0.00 0.00 47 1015.6
20260901231359 95 190 2.0 6.0 0.00 0.00 0.00 47 1015.5
20260901230859 95 155 0.0 6.0 0.00 0.00 0.00 46 1015.6
20260901230400 96 140 2.0 6.0 0.00 0.00 0.00 46 1015.6
20260901225859 96 103 1.0 6.0 0.00 0.00 0.00 46 1015.5
20260901225359 96 88 4.0 6.0 0.00 0.00 0.00 46 1015.6
20260901224859 96 241 3.0 6.0 0.00 0.00 0.00 48 1015.6
20260901223859 96 103 2.0 7.0 0.00 0.00 0.00 47 1015.6
20260901223359 96 135 2.0 7.0 0.00 0.00 0.00 48 1015.5
20260901221859 94 200 0.0 6.0 0.00 0.00 0.00 50 1015.3
20260901221359 93 90 3.0 3.0 0.00 0.00 0.00 52 1015.4
20260901220859 94 213 0.0 4.0 0.00 0.00 0.00 51 1015.4
20260901220359 93 97 1.0 4.0 0.00 0.00 0.00 52 1015.4
20260901215359 93 96 0.0 0.0 0.00 0.00 0.00 56 1015.5
20260901214859 93 96 0.0 1.0 0.00 0.00 0.00 55 1015.4
20260901214359 93 96 0.0 2.0 0.00 0.00 0.00 54 1015.4
20260901213859 94 96 0.0 2.0 0.00 0.00 0.00 53 1015.5
20260901213358 95 198 0.0 3.0 0.00 0.00 0.00 50 1015.5
20260901212859 96 197 0.0 5.0 0.00 0.00 0.00 47 1015.6
20260901212358 97 198 1.0 6.0 0.00 0.00 0.00 44 1015.7
20260901211858 98 197 5.0 6.0 0.00 0.00 0.00 44 1015.7
20260901211359 99 85 2.0 7.0 0.00 0.00 0.00 43 1015.6
20260901210858 99 114 3.0 7.0 0.00 0.00 0.00 44 1015.6
20260901210359 99 86 4.0 7.0 0.00 0.00 0.00 45 1015.7
20260901205358 99 195 1.0 5.0 0.00 0.00 0.00 47 1015.8
20260901204858 98 152 2.0 4.0 0.00 0.00 0.00 47 1015.9
20260901204358 98 122 1.0 4.0 0.00 0.00 0.00 45 1016.0
20260901203858 98 290 1.0 4.0 0.00 0.00 0.00 45 1016.1
20260901202858 97 314 2.0 3.0 0.00 0.00 0.00 47 1016.1
20260901202358 97 339 0.0 0.0 0.00 0.00 0.00 46 1016.1
20260901201858 96 69 0.0 2.0 0.00 0.00 0.00 47 1016.2
20260901201358 96 5 0.0 2.0 0.00 0.00 0.00 50 1016.5
20260901200858 95 128 0.0 2.0 0.00 0.00 0.00 54 1016.5
20260901200358 95 219 0.0 2.0 0.00 0.00 0.00 49 1016.4
20260901195858 95 118 0.0 5.0 0.00 0.00 0.00 51 1016.6
20260901195358 96 98 2.0 7.0 0.00 0.00 0.00 47 1016.5
20260901194858 96 142 3.0 7.0 0.00 0.00 0.00 48 1016.6
20260901194358 96 339 1.0 4.0 0.00 0.00 0.00 46 1016.5
20260901193858 97 111 0.0 4.0 0.00 0.00 0.00 45 1016.8
20260901193357 98 190 4.0 4.0 0.00 0.00 0.00 46 1016.7
20260901192858 98 21 1.0 5.0 0.00 0.00 0.00 47 1016.7
20260901192357 98 123 3.0 5.0 0.00 0.00 0.00 45 1016.7
20260901191858 97 137 2.0 4.0 0.00 0.00 0.00 50 1016.8
20260901191357 96 111 4.0 7.0 0.00 0.00 0.00 46 1016.9
20260901190858 98 155 0.0 7.0 0.00 0.00 0.00 45 1017.0
20260901190357 98 74 0.0 6.0 0.00 0.00 0.00 47 1017.1
20260901185858 98 268 0.0 5.0 0.00 0.00 0.00 45 1017.1
20260901185357 98 277 0.0 5.0 0.00 0.00 0.00 45 1017.1
20260901184857 100 182 5.0 7.0 0.00 0.00 0.00 46 1017.2
20260901184357 100 292 2.0 9.0 0.00 0.00 0.00 46 1017.3
20260901183857 99 246 1.0 9.0 0.00 0.00 0.00 46 1017.4
20260901183357 99 296 2.0 5.0 0.00 0.00 0.00 45 1017.4
20260901182857 99 280 2.0 4.0 0.00 0.00 0.00 49 1017.4
20260901182357 97 348 2.0 4.0 0.00 0.00 0.00 49 1017.5
20260901181857 98 97 2.0 4.0 0.00 0.00 0.00 48 1017.6
20260901181357 98 194 3.0 3.0 0.00 0.00 0.00 56 1017.7
20260901180857 97 36 1.0 4.0 0.00 0.00 0.00 51 1017.6
20260901180357 100 284 1.0 6.0 0.00 0.00 0.00 50 1017.8
20260901175857 98 306 1.0 7.0 0.00 0.00 0.00 53 1017.9
20260901175357 96 5 1.0 7.0 0.00 0.00 0.00 50 1017.9
20260901174857 96 15 1.0 6.0 0.00 0.00 0.00 53 1018.1
20260901174357 96 350 1.0 6.0 0.00 0.00 0.00 51 1018.2
20260901173857 96 355 0.0 7.0 0.00 0.00 0.00 54 1018.1
20260901173357 96 32 5.0 7.0 0.00 0.00 0.00 52 1018.2
20260901172857 96 25 2.0 5.0 0.00 0.00 0.00 52 1018.2
20260901172356 97 5 2.0 3.0 0.00 0.00 0.00 52 1018.3
20260901171856 97 316 2.0 3.0 0.00 0.00 0.00 52 1018.3
20260901171356 97 223 0.0 7.0 0.00 0.00 0.00 48 1018.5
20260901170856 97 123 1.0 7.0 0.00 0.00 0.00 47 1018.4
20260901170357 97 221 2.0 6.0 0.00 0.00 0.00 48 1018.6
20260901165856 95 206 3.0 5.0 0.00 0.00 0.00 53 1018.7